Location: Nakusp
(50.2330°N, 117.8000°W)
Time: 14:33:38
(UTC-07:00)

Daily predictions for brighter satellites

Satellite Brightness Start Highest point End
(mag) Time Altitude Azimuth Time Altitude Azimuth Time Altitude Azimuth
CENTAUR R/B 2.7 21:21:46 10° SSW 21:27:41 56° ESE 21:34:32 10° NE
Cosmos 1743 4.5 21:25:04 10° NNW 21:28:30 32° W 21:31:55 10° SSW
ERBS 4.1 21:26:07 10° NW 21:29:08 29° NNE 21:32:10 10° ENE
Cosmos 1814 Rocket 4.1 21:25:28 10° SSW 21:30:45 85° ESE 21:36:08 10° NNE
MetOp-A 4.2 21:27:00 10° SSE 21:32:22 88° WSW 21:37:46 10° NNW
Cosmos 1455 Rocket 3.2 21:28:03 10° NNW 21:32:25 77° W 21:36:48 10° S
Iridium 2 4.1 21:31:14 10° SSW 21:35:02 68° W 21:38:54 10° N
Cosmos 1125 Rocket 3.6 21:31:38 10° NNW 21:36:55 69° ENE 21:42:07 10° SSE
SPOT 1/Viking Rocket 4.0 21:36:17 10° SE 21:41:15 50° ENE 21:46:14 10° N
BREEZE-M DEB 4.4 21:37:33 10° W 21:41:16 55° SSW 21:44:03 10° ESE
Helios 1A 3.4 21:37:55 10° SE 21:41:56 49° ENE 21:45:59 10° N
USA 245 3.7 21:38:32 10° SSE 21:42:25 70° ENE 21:47:22 10° N
ATLAS 3B R/B 3.8 21:37:32 10° WSW 21:44:23 50° NW 21:51:00 10° NE
H-2A R/B 2.1 21:39:32 10° SSE 21:44:31 85° WSW 21:49:41 10° NNW
Landsat 7 4.5 21:41:17 10° SE 21:45:46 43° ENE 21:50:16 10° N
Cosmos 1356 Rocket 4.4 21:43:41 10° SSE 21:47:27 31° E 21:51:17 10° NNE
Cosmos 2034 Rocket 4.1 21:42:05 10° S 21:48:05 60° E 21:54:10 10° NNE
Cosmos 2084 4.0 21:44:36 10° WSW 21:48:47 61° NW 21:52:46 10° NE
Cosmos 1975 Rocket 4.4 21:44:47 10° SW 21:48:53 42° WNW 21:53:01 10° N
Cosmos 1464 Rocket 4.1 21:43:46 10° S 21:50:09 82° E 21:56:33 10° N
SL-16 R/B 4.2 21:48:00 10° N 21:52:11 20° NE 21:56:20 10° E
Cosmos 2333 Rocket 2.7 21:46:44 10° NNW 21:52:21 53° NE 21:57:46 11° SE
COSMOS 2428 2.8 21:49:36 10° NNW 21:55:19 79° ENE 22:00:42 12° SSE
Helios 1B rocket 3.4 21:53:59 10° NE 21:57:38 29° E 22:00:55 12° SSE
Cosmos 1515 3.7 21:56:11 10° S 22:00:02 86° W 22:03:54 10° N
Abrixas rocket 2.1 21:57:59 10° WSW 22:01:10 61° S 22:04:22 10° E
Meteor 1-23 Rocket 4.2 21:58:01 10° S 22:03:36 85° E 22:09:12 10° NNE
Terra 2.5 22:00:26 12° SE 22:04:34 43° ENE 22:09:05 10° N
DMSP B5D2-2 4.3 21:59:23 10° NNE 22:04:37 56° E 22:09:47 10° S
Lacrosse 5 rocket 2.9 22:01:47 10° WNW 22:05:22 25° SW 22:08:48 10° S
Tiangong 2 2.7 22:03:45 10° WSW 22:06:06 19° S 22:07:27 15° SSE
Cosmos 1833 4.3 22:00:43 10° SSW 22:06:28 88° WNW 22:12:11 10° NNE
ARGOS 4.0 22:02:21 10° S 22:07:32 47° W 22:12:48 10° NNW
SJ 16-02 2.0 22:03:52 10° NNW 22:08:12 52° WSW 22:12:29 10° S
Cosmos 540 Rocket 3.4 22:03:10 10° SSW 22:08:21 82° ESE 22:13:34 10° NNE
SPOT 5 2.7 22:05:37 11° SSE 22:09:52 87° ENE 22:14:36 10° NNW
Meteor 2-4 Rocket 4.4 22:04:53 10° SSW 22:10:16 56° WNW 22:15:52 10° N
Cosmos 2228 4.3 22:08:37 10° N 22:12:20 28° ENE 22:15:22 13° SE
Cosmos 2297 Rocket 3.9 22:10:46 11° ESE 22:13:07 14° E 22:16:03 10° ENE
Cosmos 2322 Rocket 4.5 22:10:11 10° WNW 22:13:43 17° W 22:17:15 10° SW
ISS -3.4 22:10:44 10° W 22:14:01 66° N 22:17:16 10° E
IGS 5A 3.7 22:12:02 15° SSE 22:15:24 57° ENE 22:19:31 10° N
Cosmos 2227 Rocket 3.8 22:14:13 13° SE 22:16:50 17° E 22:20:24 10° ENE
Cosmos 2237 Rocket 2.8 22:13:20 10° NNW 22:18:53 49° NE 22:23:44 13° SE
Cosmos 1536 Rocket 4.2 22:17:53 10° SSW 22:22:17 59° WNW 22:26:44 10° N
SL-23 DEB 4.3 22:18:51 10° W 22:22:28 78° N 22:28:21 10° E
Cosmos 1544 3.2 22:19:36 10° N 22:23:19 66° ENE 22:25:58 18° SSE
Cosmos 1726 Rocket 4.1 22:20:13 10° N 22:24:28 45° ENE 22:27:35 17° SE
Okean 1-7 Rocket 4.0 22:25:45 16° SSE 22:29:13 48° E 22:33:36 10° NNE
Cosmos 1066 Rocket 4.1 22:26:49 10° S 22:32:05 69° E 22:37:34 10° NNE
Cosmos 2058 Rocket 3.5 22:40:05 10° N 22:44:31 51° ENE 22:47:19 21° SE
USA 234 3.2 22:38:57 10° ENE 22:45:33 84° SSE 22:52:08 10° WSW
Cosmos 1766 3.3 22:41:58 10° N 22:45:57 70° ENE 22:48:23 23° SSE
CZ-4C R/B 3.3 22:40:35 10° NW 22:47:27 54° WSW 22:53:30 17° SSE
Cosmos 2219 3.2 22:44:28 10° SSW 22:50:08 65° ESE 22:55:51 10° NNE
Cosmos 1092 Rocket 4.3 22:43:59 10° NNW 22:50:20 70° W 22:55:47 14° S
CARTOSAT-1 3.9 22:50:13 18° S 22:53:20 62° WSW 22:57:38 10° NNW
Meteor 1-22 Rocket 4.1 22:51:14 10° NNW 22:56:37 82° W 23:00:22 20° S
CZ-2C R/B 3.2 22:51:35 10° NNE 22:57:00 46° E 23:00:27 21° SSE
NOSS 0 Rocket 4.0 22:52:03 10° NW 22:58:18 73° WSW 23:02:39 21° SSE
Cosmos 1025 Rocket 3.8 22:54:19 10° SSW 22:58:34 53° WNW 23:02:54 10° N
BREEZE-M R/B 1.6 22:58:03 10° W 23:00:52 82° S 23:02:04 26° E
Cosmos 2360 Rocket 4.4 22:58:36 10° WNW 23:01:58 16° W 23:05:20 10° SW
Meteor 1-29 3.1 22:58:50 10° N 23:02:19 74° WNW 23:04:45 18° SSW
Cosmos 2219 Rocket 2.8 23:00:03 10° NW 23:05:21 46° WSW 23:09:09 18° S
ERBS 2.2 23:02:36 10° WNW 23:05:59 89° SSW 23:07:36 29° SE
Cosmos 1606 Rocket 4.0 23:03:07 10° NNW 23:07:30 59° W 23:10:26 20° S
ALOS 2 4.2 23:05:21 14° ESE 23:08:05 24° ENE 23:11:38 10° N
Cosmos 1538 Rocket 4.2 23:09:12 22° S 23:12:22 53° ESE 23:17:30 10° NNE
Cosmos 1758 3.7 23:09:26 10° N 23:13:27 54° ENE 23:15:22 28° SE
CZ-2C R/B 3.5 23:13:05 20° S 23:16:51 65° W 23:22:33 10° NNW
Cosmos 2026 Rocket 4.2 23:11:12 10° NNW 23:17:20 68° W 23:21:44 19° S
CENTAUR R/B 3.7 23:12:23 10° WSW 23:18:33 48° NNW 23:25:43 10° NE
Cosmos 1805 3.3 23:14:49 10° NNW 23:18:45 73° W 23:20:41 28° S
Mayak 0.4 23:18:42 10° NE 23:21:50 20° E 23:22:59 18° ESE
Cosmos 2084 Rocket 3.6 23:18:32 10° NW 23:22:27 51° SW 23:23:57 32° S
Cosmos 1842 3.2 23:21:07 29° S 23:23:01 79° E 23:26:57 10° NNE
H-2A R/B 4.4 23:22:30 10° WSW 23:24:48 13° W 23:27:08 10° WNW
Cosmos 1470 3.3 23:22:09 10° N 23:25:56 46° ENE 23:27:28 29° SE
Cosmos 2279 Rocket 4.0 23:22:26 21° S 23:26:50 82° E 23:33:04 10° N
Cosmos 1655 Rocket 4.1 23:25:51 10° NNW 23:32:16 79° W 23:36:23 23° S
Helios 1B rocket 4.0 23:29:14 10° N 23:32:57 32° WNW 23:36:37 10° SW
Cosmos 2333 Rocket 3.4 23:31:25 10° NW 23:36:23 31° WSW 23:39:47 18° SSW
SL-16 R/B 2.3 23:31:34 10° NNW 23:37:17 76° ENE 23:40:43 25° SE
Abrixas rocket 2.3 23:34:17 10° W 23:37:25 49° SSW 23:37:32 48° S
H-2A R/B 3.2 23:37:16 21° ESE 23:39:30 34° ENE 23:43:20 10° N
Terra 3.3 23:39:19 14° SW 23:42:28 27° W 23:46:33 10° NW
COSMOS 2455 2.9 23:40:12 20° SSW 23:44:23 65° ESE 23:50:23 10° NE
Cosmos 1980 4.4 23:40:22 10° NW 23:45:40 42° WSW 23:48:37 23° SSW
Cosmos 773 Rocket 3.9 23:44:00 21° SSW 23:47:26 89° NW 23:52:37 10° NNE
Intercosmos 25 3.7 23:46:36 23° SSW 23:48:45 52° W 23:51:57 10° N
Cosmos 1892 Rocket 4.4 23:45:58 18° SW 23:48:57 46° WNW 23:53:10 10° N
Cosmos 1707 3.5 23:47:59 32° SE 23:49:02 40° E 23:52:43 10° NNE
Cosmos 2228 4.2 23:46:03 10° NNW 23:49:56 34° W 23:52:13 20° SW
ISS -4.0 23:47:18 10° WNW 23:50:35 79° SSW 23:51:28 45° ESE
CZ-4C R/B 4.1 23:48:37 28° SE 23:50:43 52° ENE 23:55:00 10° N
Cosmos 1378 3.2 23:52:08 41° SSE 23:53:12 62° E 23:56:56 10° NNE
Cosmos 1953 2.3 23:49:28 10° NNW 23:53:28 77° W 23:54:54 38° S
